Regional Weather Roundup
Issued by NWS Raleigh/Durham, NC

Current Version | Previous Version | Graphics & Text | Print | Product List | Glossary On
Versions: 1 2 3 4 5 6 7 8 9 10 11 12 13 14 15 16 17 18 19 20 21 22 23 24 25 26 27 28 29 30 31 32 33 34 35 36 37 38 39 40 41 42 43 44 45 46 47 48 49 50
958
ASUS42 KRAH 291510
RWRRAH
NORTH CAROLINA WEATHER ROUNDUP
NATIONAL WEATHER SERVICE RALEIGH NC
1100 AM EDT WED JUN 29 2016

NOTE: "FAIR" INDICATES FEW OR NO CLOUDS BELOW 12,000 FEET WITH NO
SIGNIFICANT WEATHER AND/OR OBSTRUCTIONS TO VISIBILITY.

NCZ001-053-055-056-065-067-291600-
WESTERN NORTH CAROLINA

CITY           SKY/WX    TMP DP  RH WIND       PRES   REMARKS
ASHEVILLE      MOSUNNY   80  61  52 N9        30.08S
JEFFERSON      CLOUDY    73  58  59 W6        30.11R
MORGANTON      MOSUNNY   81  63  53 CALM      30.06S
HICKORY        SUNNY     81  64  56 CALM      30.01F
RUTHERFORDTON  MOSUNNY   82  63  52 S3        30.02S
MOUNT AIRY     SUNNY     79  67  66 SE3       30.04S
BOONE          SUNNY     73  57  56 NW14      30.12R
$$

NCZ021-022-025-041-071-084-088-291600-
CENTRAL NORTH CAROLINA

CITY           SKY/WX    TMP DP  RH WIND       PRES   REMARKS
CHARLOTTE      MOSUNNY   86  64  47 VRB5      30.00S
GREENSBORO     PTSUNNY   82  61  48 CALM      29.99S
WINSTON-SALEM  SUNNY     82  63  52 N3        30.01S
RALEIGH-DURHAM MOSUNNY   83  67  58 NE5       29.97F
FORT BRAGG     SUNNY     83  72  69 CALM      29.95F
FAYETTEVILLE   SUNNY     84  69  60 NE5       29.96S
BURLINGTON     SUNNY     82  65  56 CALM      29.98S
LAURINBURG     SUNNY     85  70  60 N6        29.97F
$$

NCZ011-015-027-028-043-044-047-080-103-291600-
NORTHEASTERN NORTH CAROLINA

CITY           SKY/WX    TMP DP  RH WIND       PRES   REMARKS
ROCKY MT-WILSO SUNNY     80  71  74 NW3       29.96F
GREENVILLE     CLOUDY    73  72  94 NW5       29.98S
WASHINGTON     PTSUNNY   76  71  83 N3        29.95S
ELIZABETH CITY CLOUDY    77  70  79 NW6       29.93S
MANTEO         CLOUDY    76  73  90 NE5       29.93S
CAPE HATTERAS  CLOUDY    81  73  76 N8        29.94R
$$

NCZ078-087-090-091-093-098-101-291600-
SOUTHEASTERN NORTH CAROLINA

CITY           SKY/WX    TMP DP  RH WIND       PRES   REMARKS
LUMBERTON      SUNNY     85  66  53 NW6       29.95F
GOLDSBORO      SUNNY     80  76  86 N5        29.94S
KINSTON        CLOUDY    75  72  88 NW5       29.97  FOG
KENANSVILLE    PTSUNNY   80  71  74 N3        29.96S
NEW BERN       CLOUDY    76  70  82 NW7       29.97R
CHERRY POINT   PTSUNNY   81  71  71 NW6       29.96R
BEAUFORT       CLOUDY    81  73  76 NW7       29.95R
JACKSONVILLE   PTSUNNY   82  71  69 NW8       29.94S
WILMINGTON     LGT RAIN  79  74  84 W6        29.95S
$$





USA.gov is the U.S. government's official web portal to all federal, state and local government web resources and services.